Regional Weather Roundup
Issued by NWS

Home | Current Version | Previous Version | Graphics & Text | Print | Product List | Glossary On
Versions: 1 2 3 4 5 6 7 8 9 10 11 12 13 14 15 16 17 18 19 20 21 22 23 24 25 26 27 28
000
ASUS45 KSLC 010410
RWRUT

UTAH REGIONAL WEATHER ROUNDUP
NATIONAL WEATHER SERVICE SALT LAKE CITY UT
1000 PM MDT SAT APR 30 2016

UTZ001>011-023>025-010500-

NORTHERN UTAH

CITY           SKY/WX    TMP DP  RH WIND       PRES   REMARKS
BRIGHAM CITY   CLOUDY    53  27  36 NE13G38   30.06R
HILL AFB       CLOUDY    48  28  46 N14G43    30.01S
LOGAN          CLOUDY    50  30  46 E23G29    30.09R
OGDEN          CLOUDY    51  30  44 E8G24     30.03R
PROVO AIRPORT  CLOUDY    50  34  53 S6        29.98R
SALT LAKE CITY CLOUDY    53  29  39 N13       29.98S
VERNAL         CLOUDY    44  25  47 NE14G21   30.09R
WENDOVER       PTCLDY    52  36  54 N20       30.03R
HEBER CITY     CLOUDY    41  36  81 CALM      30.00R

$$

UTZ012>022-026-027-010500-

SOUTHERN/CENTRAL UTAH

CITY           SKY/WX    TMP DP  RH WIND       PRES   REMARKS
BLANDING       CLEAR     41  35  80 NW7       29.96R
BRYCE CANYON   PTCLDY    35  31  85 CALM      29.97R
CEDAR CITY     CLOUDY    43  39  86 NE12      29.92R
DELTA          PTCLDY    48  32  53 N10       29.94R
HANKSVILLE     MOCLDY    50  32  50 NE14      29.96R
MILFORD        CLOUDY    46  40  79 CALM      29.94R
MOAB/CYNLANDS  PTCLDY    49  31  49 NE8       29.93R
PRICE          MOCLDY    43  27  53 NE23G35   30.02R
ST GEORGE      CLOUDY    57  41  54 NE16      29.86S

$$

REGIONAL REPORTS     COLORADO/ARIZONA

CITY           SKY/WX    TMP DP  RH WIND       PRES   REMARKS
CRAIG, CO      CLOUDY    38  22  52 E9        30.09R WCI  31
GRAND JUNCTION CLOUDY    49  31  49 NW7       29.94R
RIFLE          CLOUDY    44  37  76 CALM      29.99R
MONTROSE       CLOUDY    43  30  60 S5        29.97R
CORTEZ         CLEAR     38  34  85 NE5       29.90R WCI  34
PAGE, AZ       CLOUDY    49  40  71 CALM      29.87R
GRAND CANYON   CLOUDY    41  35  79 E14       29.90S
KINGMAN        CLOUDY    53  43  68 N6        29.81S
FLAGSTAFF      CLOUDY    35  34  96 E14       29.89R WCI  26

$$

REGIONAL REPORTS    NEVADA/IDAHO/WYOMING

CITY           SKY/WX    TMP DP  RH WIND       PRES   REMARKS
LAS VEGAS, NV  MOCLDY    58  48  69 CALM      29.79R
ELY            PTCLDY    39  35  86 N14       30.03R WCI  31
ELKO           CLEAR     47  34  60 NE7       30.05R
POCATELLO, ID  CLOUDY    50  41  71 E8        30.10R
BURLEY         LGT RAIN  49  44  83 E8        30.09R
EVANSTON, WY   CLOUDY    35  27  72 NE8       30.13R WCI  29
ROCK SPRINGS   CLOUDY    34  26  72 E21       30.18R WCI  22
KEMMERER         N/A     32  28  86 E22       30.17R WCI  19

$$




USA.gov is the U.S. government's official web portal to all federal, state and local government web resources and services.